{"data":{"norad_id":65598,"epoch":"2026-09-20T22:00:03.000096Z","epoch_age_seconds":76018,"freshness":"FRESH","line1":"1 65598U 25207G   26263.91670139 -.00013014  00000+0 -40142-3 0  9998","line2":"2 65598  97.2852 326.5057 0001895  82.9502   2.5813 15.33447903  5794","mean_motion":15.33447903,"eccentricity":0.0001895,"inclination_deg":97.2852,"raan_deg":326.5057,"arg_perigee_deg":82.9502,"mean_anomaly_deg":2.5813,"bstar":-0.00040142,"rev_number":579,"period_min":93.906026881175,"perigee_km":464.23766144989,"apogee_km":466.83141296249,"semimajor_km":6843.6715372062,"source":"CELESTRAK","updated_at":"2026-09-21T09:00:35.654125Z"}}